[[{"header":{"parameterUnit":"m.s-1","parameterCategory":1,"la1":30.2991,"la2":30.254,"lo1":-89.0895,"lo2":-89.0444,"dy":0.0017,"dx":0.0017,"nx":28,"ny":28,"refTime":"2024-05-05T09:00:00:Z","depth":0,"parameterNumber":2,"parameterNumberName":"U-component_of_WINDS"},"data":[0,0,0,0,0,0,0,0,0,0,0,0,0,0,0,0,0,0,0,0,0,0,0,0,0,0,0,0,0,0,0,0,0,0,0,0,0,0,0,0,0,0,0,0,0,0,0,0,0,0,0,0,0,0,0,0,0,0,-2.7795,-2.7795,0,-2.7797,-2.7797,-2.7797,-2.7762,-2.7761,-2.776,-2.7759,-2.7761,-2.7762,-2.7763,0,0,0,0,0,0,0,0,0,0,0,0,0,-2.7763,-2.7764,-2.7795,-2.7795,-2.7795,-2.7797,-2.7797,-2.7797,-2.7762,-2.7761,-2.776,-2.7759,-2.7761,-2.7762,-2.7763,0,0,0,0,0,0,0,0,0,0,0,0,0,-2.7772,-2.7764,-2.7795,-2.7778,-2.7776,-2.7797,-2.7797,-2.7797,-2.7762,-2.7761,-2.7759,-2.7758,-2.776,-2.7762,-2.7763,-2.78,0,0,-2.7767,-2.7768,0,0,0,0,0,0,0,0,-2.7772,-2.7773,-2.778,-2.7779,-2.7777,-2.7778,-2.7786,-2.7798,-2.7762,-2.7768,-2.7759,-2.7757,-2.7768,-2.7768,-2.7772,-2.78,-2.78,-2.7768,-2.7768,-2.7769,-2.7769,0,0,0,0,0,0,0,-2.7771,-2.7773,-2.7796,-2.7781,-2.7779,-2.7771,-2.777,-2.7788,-2.7776,-2.7767,-2.7764,-2.7765,-2.7767,-2.7771,-2.7772,-2.78,-2.7768,-2.7769,-2.777,-2.777,-2.7859,-2.786,0,0,0,0,0,0,-2.7773,-2.7773,-2.7796,-2.7796,-2.7771,-2.7772,-2.7772,-2.7779,-2.7775,-2.7773,-2.7766,-2.7763,-2.7769,-2.777,-2.7772,-2.7814,-2.7769,-2.777,-2.7771,-2.7857,-2.7859,-2.7861,0,0,0,0,0,0,-2.7772,-2.7775,-2.7796,-2.7784,-2.7786,-2.7774,-2.7782,-2.778,-2.7784,-2.7775,-2.7772,-2.7773,-2.7768,-2.777,-2.7793,-2.7813,-2.7771,-2.7772,-2.7856,-2.7858,-2.786,-2.7899,0,0,0,0,0,0,-2.7771,-2.7775,-2.7789,-2.7784,-2.7786,-2.7817,-2.7784,-2.7781,-2.7786,-2.7782,-2.778,-2.7778,-2.7767,-2.7791,-2.7795,-2.7815,-2.7773,-2.7854,-2.7857,-2.7859,-2.7896,-2.7903,-2.7908,0,0,0,0,0,-2.777,-2.78,-2.7789,-2.7792,-2.7803,-2.7818,-2.7819,-2.7805,-2.7788,-2.7801,-2.7796,-2.7778,-2.7811,-2.7794,-2.7797,-2.7818,-2.7852,-2.7856,-2.7859,-2.7893,-2.7901,-2.7908,0,0,0,0,0,0,-2.7807,-2.7799,-2.7787,-2.7816,-2.7818,-2.7812,-2.7829,-2.7814,-2.7822,-2.7818,-2.7801,-2.7801,-2.7827,-2.7825,-2.7806,-2.7854,-2.7829,-2.7833,-2.7853,-2.7861,-2.7867,-2.7866,-2.7774,0,0,0,0,0,-2.7818,-2.7831,-2.7823,-2.7849,-2.7851,-2.784,-2.7846,-2.7835,-2.7837,-2.7837,-2.7834,-2.7836,-2.7847,-2.7854,-2.7864,-2.7896,-2.7895,-2.7913,-2.7919,-2.7924,-2.7927,-2.7944,-2.7951,-2.7872,-2.7872,-2.7872,0,0,-2.7842,-2.7839,-2.7848,-2.7857,-2.7857,-2.7871,-2.7841,-2.7857,-2.7866,-2.784,-2.7861,-2.7859,-2.7861,-2.7889,-2.7901,-2.7888,-2.7949,-2.7928,-2.7932,-2.7933,-2.7948,-2.7956,-2.7962,-2.7874,-2.7874,-2.7874,0,0,-2.7891,-2.7891,-2.7912,-2.7913,-2.7914,-2.7907,-2.7912,-2.7909,-2.7906,-2.7927,-2.7908,-2.792,-2.7939,-2.794,-2.7944,-2.7996,-2.7979,-2.7999,-2.803,-2.8047,-2.8053,-2.8059,-2.8076,-2.8083,-2.8003,-2.8003,-2.8003,0,-2.792,-2.7939,-2.7925,-2.7942,-2.7946,-2.7923,-2.7945,-2.7947,-2.7951,-2.7955,-2.7941,-2.7964,-2.7964,-2.7992,-2.8004,-2.8008,-2.8014,-2.7999,-2.8053,-2.8059,-2.8064,-2.808,-2.8087,-2.8006,-2.8005,-2.8005,-2.8005,0,-2.7975,-2.7989,-2.8006,-2.801,-2.8017,-2.8036,-2.8025,-2.8034,-2.8023,-2.8017,-2.804,-2.8039,-2.8047,-2.8054,-2.8043,-2.8081,-2.8072,-2.8056,-2.803,-2.8074,-2.8089,-2.8095,-2.8009,-2.8008,-2.8007,-2.8007,0,0,-2.8046,-2.8042,-2.8049,-2.805,-2.805,-2.8061,-2.808,-2.8088,-2.8095,-2.81,-2.8114,-2.8132,-2.8117,-2.8121,-2.8111,-2.8126,-2.8166,-2.8108,-2.8107,-2.8117,-2.8206,-2.8217,-2.8224,-2.8156,-2.8157,-2.8158,-2.8205,0,-2.8093,-2.8123,-2.8111,-2.8143,-2.8156,-2.8135,-2.8151,-2.8153,-2.8149,-2.8159,-2.8155,-2.8166,-2.8147,-2.8149,-2.8163,-2.8158,-2.8183,-2.8155,-2.8169,-2.817,-2.8168,-2.8232,-2.8244,-2.8288,-2.8211,-2.8212,-2.8213,0,-2.8151,-2.8157,-2.819,-2.8188,-2.8193,-2.8208,-2.8214,-2.8225,-2.8227,-2.8223,-2.8228,-2.8215,-2.8233,-2.8209,-2.8234,-2.8215,-2.8221,-2.8219,-2.8221,-2.822,-2.8193,-2.8232,-2.8302,-2.8308,-2.8222,-2.8222,-2.8221,0,-2.8198,-2.8215,-2.8237,-2.8239,-2.8237,-2.8248,-2.8248,-2.8248,-2.8254,-2.8261,-2.8265,-2.8273,-2.8278,-2.8285,-2.8275,-2.8259,-2.8302,-2.8276,-2.8298,-2.8298,-2.8306,-2.8306,-2.8377,-2.8313,-2.8313,-2.8313,-2.8313,0,-2.8251,-2.8272,-2.8258,-2.8271,-2.8294,-2.828,-2.8304,-2.8301,-2.8302,-2.8315,-2.8298,-2.831,-2.8297,-2.8308,-2.8301,-2.8322,-2.8325,-2.8322,-2.8319,-2.8322,-2.8323,-2.8324,-2.8321,-2.8314,-2.8314,-2.8314,-2.8313,0,-2.8306,-2.8298,-2.832,-2.8317,-2.8317,-2.8333,-2.8331,-2.8343,-2.8338,-2.8354,-2.8357,-2.835,-2.8362,-2.8353,-2.8366,-2.8361,-2.8388,-2.8382,-2.8387,-2.8385,-2.8407,-2.8404,-2.848,-2.8489,-2.8421,-2.8422,-2.8422,0,-2.834,-2.8355,-2.8354,-2.8361,-2.8362,-2.8374,-2.838,-2.8368,-2.8375,-2.8378,-2.839,-2.8401,-2.8409,-2.843,-2.8426,-2.8435,-2.8428,-2.8454,-2.843,-2.8432,-2.8427,-2.8426,-2.8427,-2.8459,-2.846,-2.846,-2.8461,0,-2.84,-2.8395,-2.8404,-2.8412,-2.842,-2.8425,-2.843,-2.8437,-2.8425,-2.8434,-2.8446,-2.8452,-2.8465,-2.8476,-2.8484,-2.8484,-2.847,-2.8469,-2.8474,-2.8477,-2.8479,-2.8477,-2.84,-2.8467,-2.8466,-2.8466,-2.8466,-2.8465,-2.8445,-2.8458,-2.8458,-2.8469,-2.8471,-2.8476,-2.8487,-2.8483,-2.8493,-2.8502,-2.8495,-2.851,-2.8512,-2.8521,-2.8523,-2.8535,-2.8524,-2.8532,-2.8534,-2.8535,-2.8538,-2.8478,-2.8536,-2.8536,-2.8536,-2.8536,-2.8536,0,-2.8503,-2.8503,-2.8513,-2.8519,-2.8528,-2.8515,-2.8519,-2.8527,-2.854,-2.8543,-2.8552,-2.8566,-2.8577,-2.8573,-2.8583,-2.8593,-2.8587,-2.8596,-2.8594,-2.8594,-2.8547,-2.8541,-2.86,-2.86,-2.86,-2.86,-2.86,-2.86,-2.8535,-2.8555,-2.855,-2.8572,-2.8571,-2.8585,-2.8589,-2.8593,-2.8595,-2.8612,-2.862,-2.8618,-2.8619,-2.8629,-2.8638,-2.8637,-2.8641,-2.8651,-2.8648,-2.8604,-2.8597,-2.8591,-2.8585,-2.8653,-2.8653,-2.8693,-2.8694,-2.8694]},{"header":{"parameterUnit":"m.s-1","parameterCategory":1,"la1":30.2991,"la2":30.254,"lo1":-89.0895,"lo2":-89.0444,"dy":0.0017,"dx":0.0017,"nx":28,"ny":28,"refTime":"2024-05-05T09:00:00:Z","depth":0,"parameterNumber":3,"parameterNumberName":"V-component_of_WINDS"},"data":[0,0,0,0,0,0,0,0,0,0,0,0,0,0,0,0,0,0,0,0,0,0,0,0,0,0,0,0,0,0,0,0,0,0,0,0,0,0,0,0,0,0,0,0,0,0,0,0,0,0,0,0,0,0,0,0,0,0,3.3574,3.3575,0,3.3623,3.3623,3.3624,3.364,3.364,3.3639,3.3639,3.3684,3.3686,3.3687,0,0,0,0,0,0,0,0,0,0,0,0,0,3.3491,3.3493,3.3574,3.3575,3.3575,3.3623,3.3623,3.3624,3.364,3.364,3.3639,3.3639,3.3684,3.3686,3.3687,0,0,0,0,0,0,0,0,0,0,0,0,0,3.3532,3.3493,3.3574,3.3589,3.3591,3.3623,3.3623,3.3624,3.364,3.364,3.3639,3.3639,3.3683,3.3685,3.3687,3.3706,0,0,3.3694,3.3695,0,0,0,0,0,0,0,0,3.353,3.3535,3.3586,3.3588,3.359,3.3625,3.3611,3.3652,3.364,3.3621,3.3639,3.3639,3.3665,3.3668,3.3678,3.3708,3.371,3.3694,3.3695,3.3696,3.3697,0,0,0,0,0,0,0,3.3527,3.3533,3.3593,3.3587,3.3589,3.3592,3.3598,3.3619,3.3644,3.3623,3.3624,3.363,3.3666,3.3676,3.3679,3.3711,3.3694,3.3696,3.3697,3.3698,3.376,3.376,0,0,0,0,0,0,3.3522,3.3531,3.3592,3.3595,3.3559,3.3594,3.36,3.3614,3.3644,3.3648,3.363,3.363,3.3672,3.3676,3.3681,3.3705,3.3696,3.3698,3.3699,3.376,3.376,3.3761,0,0,0,0,0,0,3.352,3.3527,3.359,3.3563,3.3571,3.3596,3.3611,3.3615,3.3626,3.3649,3.3653,3.3636,3.3672,3.3678,3.37,3.3707,3.3699,3.3701,3.3759,3.376,3.376,3.3754,0,0,0,0,0,0,3.3518,3.3527,3.3535,3.3563,3.3573,3.361,3.3612,3.3616,3.363,3.3631,3.3656,3.366,3.3672,3.3697,3.3702,3.371,3.3702,3.3759,3.3759,3.376,3.3754,3.3755,3.3755,0,0,0,0,0,3.3515,3.353,3.3535,3.3543,3.3584,3.361,3.3615,3.3631,3.363,3.3638,3.3653,3.3659,3.3705,3.3699,3.3705,3.3713,3.3758,3.3759,3.376,3.3754,3.3754,3.3755,0,0,0,0,0,0,3.35,3.3534,3.354,3.3565,3.3585,3.3613,3.3623,3.3631,3.365,3.365,3.3667,3.3672,3.3694,3.3706,3.3698,3.3734,3.3732,3.3734,3.3725,3.3726,3.3727,3.3723,3.3704,0,0,0,0,0,3.35,3.352,3.3548,3.3567,3.3577,3.3598,3.361,3.3621,3.3641,3.3649,3.3666,3.3685,3.3703,3.3715,3.3734,3.3756,3.3761,3.3764,3.3765,3.3765,3.3767,3.378,3.3782,3.3764,3.3764,3.3764,0,0,3.3499,3.352,3.3531,3.3565,3.3581,3.3601,3.3605,3.3625,3.3639,3.3652,3.3675,3.3688,3.3709,3.3732,3.3743,3.3743,3.3773,3.3766,3.3767,3.3768,3.3781,3.3783,3.3784,3.3764,3.3764,3.3764,0,0,3.3508,3.3526,3.3545,3.3562,3.3587,3.3602,3.3606,3.3633,3.3643,3.3667,3.3677,3.3693,3.3725,3.3741,3.3753,3.3769,3.3775,3.3774,3.3777,3.379,3.3791,3.3792,3.3798,3.38,3.3776,3.3776,3.3776,0,3.3503,3.3534,3.3553,3.3573,3.3587,3.3601,3.362,3.3635,3.3664,3.3673,3.3673,3.3715,3.373,3.3757,3.3761,3.377,3.3775,3.3771,3.379,3.3791,3.3793,3.3798,3.3801,3.3775,3.3775,3.3775,3.3776,0,3.3528,3.3549,3.3561,3.3592,3.3607,3.3626,3.3646,3.366,3.3669,3.3683,3.3707,3.3726,3.375,3.3757,3.3765,3.3785,3.3784,3.3786,3.3785,3.3794,3.38,3.3802,3.3775,3.3775,3.3775,3.3775,0,0,3.3527,3.357,3.3573,3.3588,3.3618,3.3634,3.3654,3.3678,3.369,3.3709,3.3726,3.3754,3.3757,3.377,3.378,3.3791,3.3803,3.3792,3.3793,3.3794,3.3827,3.3825,3.3827,3.3808,3.3808,3.3809,3.3825,0,3.354,3.3578,3.3596,3.3625,3.3645,3.3659,3.3676,3.3696,3.371,3.3728,3.3742,3.3762,3.3764,3.3773,3.3784,3.38,3.381,3.3799,3.3822,3.3823,3.3817,3.383,3.3828,3.3843,3.3827,3.3828,3.3828,0,3.356,3.3583,3.3615,3.3644,3.3653,3.3668,3.3693,3.371,3.3732,3.3741,3.3757,3.3768,3.3788,3.3786,3.3814,3.3806,3.3816,3.3825,3.3826,3.3829,3.3826,3.3833,3.3848,3.385,3.3832,3.3831,3.3831,0,3.3558,3.3596,3.362,3.3632,3.3666,3.3677,3.3691,3.3713,3.3727,3.3748,3.3757,3.3779,3.3791,3.3808,3.3823,3.382,3.385,3.3849,3.3858,3.3857,3.3863,3.3862,3.3879,3.387,3.387,3.387,3.387,0,3.3571,3.3589,3.362,3.3635,3.3656,3.3676,3.3696,3.3711,3.3731,3.3749,3.3762,3.3777,3.3797,3.3815,3.3827,3.3849,3.3854,3.3861,3.3864,3.386,3.386,3.3868,3.3867,3.387,3.387,3.387,3.387,0,3.3571,3.3592,3.362,3.3651,3.3659,3.3673,3.3699,3.3713,3.3729,3.375,3.3756,3.378,3.3802,3.3819,3.3847,3.3855,3.3878,3.3881,3.3871,3.3873,3.3881,3.388,3.3903,3.3907,3.3895,3.3895,3.3895,0,3.3578,3.3593,3.3626,3.364,3.3655,3.3676,3.3691,3.3711,3.3726,3.3753,3.3764,3.3788,3.3807,3.3841,3.386,3.3881,3.3885,3.3892,3.3889,3.3884,3.3886,3.3885,3.3887,3.3892,3.3892,3.3893,3.3893,0,3.3588,3.3598,3.362,3.3646,3.3664,3.3685,3.3706,3.3716,3.3739,3.3755,3.3779,3.3794,3.3824,3.3847,3.3871,3.3884,3.3892,3.3894,3.3897,3.3893,3.3887,3.3891,3.3872,3.3893,3.3893,3.3893,3.3893,3.3893,3.3592,3.3607,3.3633,3.3657,3.3676,3.3695,3.3711,3.3729,3.375,3.3777,3.3787,3.3811,3.3833,3.3867,3.388,3.3899,3.3899,3.3904,3.3905,3.3906,3.3906,3.3884,3.3903,3.3903,3.3903,3.3903,3.3903,0,3.3603,3.3621,3.3644,3.3674,3.3693,3.3701,3.3725,3.374,3.3762,3.3782,3.3802,3.383,3.3852,3.3873,3.3896,3.3907,3.3911,3.3912,3.3912,3.3915,3.3904,3.3899,3.3909,3.3909,3.3909,3.3909,3.3909,3.3909,3.3611,3.3637,3.365,3.3685,3.3703,3.3728,3.3741,3.3759,3.3776,3.3807,3.3827,3.3841,3.3861,3.3886,3.3907,3.3913,3.392,3.3921,3.3927,3.3916,3.3915,3.3915,3.391,3.3922,3.3922,3.3937,3.3937,3.3937]}]]